TimeCDT,TemperatureF,Dew PointF,Humidity,Sea Level PressureIn,VisibilityMPH,Wind Direction,Wind SpeedMPH,Gust SpeedMPH,PrecipitationIn,Events,Conditions,WindDirDegrees,DateUTC
12:53 AM,73.0,70.0,90,29.85,10.0,NNE,6.9,-,N/A,,Overcast,30,2013-08-27 05:53:00
1:53 AM,72.0,70.0,93,29.84,10.0,East,4.6,-,N/A,,Partly Cloudy,80,2013-08-27 06:53:00
2:53 AM,72.0,70.0,93,29.83,10.0,East,5.8,-,N/A,,Mostly Cloudy,100,2013-08-27 07:53:00
3:53 AM,71.1,69.1,93,29.82,10.0,Calm,Calm,-,N/A,,Clear,0,2013-08-27 08:53:00
4:53 AM,70.0,69.1,97,29.83,9.0,NE,3.5,-,N/A,,Clear,40,2013-08-27 09:53:00
5:53 AM,69.1,69.1,100,29.84,7.0,North,4.6,-,N/A,,Clear,360,2013-08-27 10:53:00
6:41 AM,66.2,66.2,100,29.87,0.8,Calm,Calm,-,N/A,,Clear,0,2013-08-27 11:41:00
6:53 AM,66.9,66.9,100,29.86,0.2,North,3.5,-,N/A,Fog,Fog,360,2013-08-27 11:53:00
7:01 AM,68.0,68.0,100,29.87,0.8,North,3.5,-,N/A,,Clear,10,2013-08-27 12:01:00
7:04 AM,68.0,68.0,100,29.87,2.5,Calm,Calm,-,N/A,,Clear,0,2013-08-27 12:04:00
7:11 AM,69.8,68.0,94,29.87,5.0,Calm,Calm,-,N/A,,Clear,0,2013-08-27 12:11:00
7:53 AM,71.1,69.1,93,29.86,10.0,NNE,3.5,-,N/A,,Clear,30,2013-08-27 12:53:00
8:53 AM,73.9,69.1,85,29.87,10.0,ENE,5.8,-,N/A,,Clear,60,2013-08-27 13:53:00
9:53 AM,78.1,69.1,74,29.88,10.0,NE,5.8,-,N/A,,Clear,50,2013-08-27 14:53:00
10:53 AM,79.0,68.0,69,29.89,10.0,ENE,8.1,-,N/A,,Clear,70,2013-08-27 15:53:00
11:53 AM,82.9,66.9,58,29.90,10.0,Variable,4.6,-,N/A,,Clear,0,2013-08-27 16:53:00
12:53 PM,84.0,66.0,55,29.89,10.0,East,6.9,-,N/A,,Clear,100,2013-08-27 17:53:00
1:53 PM,86.0,66.0,51,29.88,10.0,Calm,Calm,-,N/A,,Clear,0,2013-08-27 18:53:00
2:53 PM,87.1,64.9,48,29.88,10.0,Calm,Calm,-,N/A,,Clear,0,2013-08-27 19:53:00
3:53 PM,89.1,62.1,40,29.88,10.0,East,3.5,-,N/A,,Clear,80,2013-08-27 20:53:00
4:53 PM,90.0,62.1,39,29.88,10.0,North,4.6,-,N/A,,Clear,360,2013-08-27 21:53:00
5:53 PM,89.1,62.1,40,29.89,10.0,Calm,Calm,-,N/A,,Clear,0,2013-08-27 22:53:00
6:53 PM,87.1,64.9,48,29.90,10.0,NNE,5.8,-,N/A,,Clear,30,2013-08-27 23:53:00
7:53 PM,84.0,64.9,53,29.91,10.0,East,3.5,-,N/A,,Clear,90,2013-08-28 00:53:00
8:53 PM,79.0,64.9,62,29.92,10.0,ESE,3.5,-,N/A,,Clear,120,2013-08-28 01:53:00
9:53 PM,73.0,64.9,76,29.94,10.0,Calm,Calm,-,N/A,,Clear,0,2013-08-28 02:53:00
10:53 PM,69.1,66.0,90,29.95,10.0,Calm,Calm,-,N/A,,Clear,0,2013-08-28 03:53:00
11:53 PM,68.0,66.0,93,29.95,10.0,Calm,Calm,-,N/A,,Clear,0,2013-08-28 04:53:00